SL-16 DEB, 29097

Orbit data source: Space-Track

SL-16 DEB, 29097 is space debris in LEO originally from a launch on Fri, 26 Mar 1993 UTC launched from the Tyuratam Missile And Space Complex (TTMTR). Debris objects in space refer to the collection of defunct objects orbiting the Earth. Examples of debris include non-operational satellites, rocket bodies, and fragments generated from explosions, collisions, or faulty payload assembly.

Loading next visibility...
Identifier
29097, 1993-016AL
Orbit
LEO
Country
Flag of CISCIS
Related business
Manufacturer
Unknown
Mission
Spacecraft
Bus & Motor
Unknown
Mass
Unknown
Launch date (UTC)
1993-03-26 (33 years ago)
Launch vehicle
Unknown
Launch site
Tyuratam Missile And Space Complex (TTMTR)
Object type
Payload
Rocket body
Debris
Shape & HBR
Unknown shape, 0.1 m
Radar Cross Section
Small (<0.1 m²)

Expand to show TLE details & history
Last TLE update: 11 hours ago

TLE from 11 hours ago
0 SL-16 DEB
1 29097U 93016AL  26255.29854707  .00000053  00000-0  68368-4 0  9991
2 29097  71.0086 358.4499 0123512 116.5979 276.3050 13.94627082286297
Epoch: 2026-09-12T07:09Z
TLE epoch observation values (Epoch: 2026-09-12T07:09:54.466Z)
Latitude
29.66065°
Longitude
-89.09395°
Altitude
906.839 km
Speed
7.406 km/s
True Right ascension
00h 38m 46s
True Declination
29° 30' 58"
Sunlit
Object was in full shadow at epoch
Visualization orbit readout
Latitude
Unknown
Longitude
Unknown
Altitude
Unknown
Speed
Unknown
Apparent Right ascension
Unknown
Apparent Declination
Unknown
Sunlit
N/A
Visualization observer readout
Local Sidereal Time
10:38:11
Azimuth
Unknown
Elevation
Unknown
Doppler factor
Unknown
Orbital elements
Apogee altitude
1,000.426 km
Perigee altitude
820.382 km
Semi-major axis
7,288.541 km
Eccentricity
0.01235
Inclination
71.0086°
RAAN
358.4499°
Arg. of periapsis
116.5979°
True anomaly
274.89597°
Mean anomaly
276.305°
Eccentric anomaly
275.60071°
Mean motion
3.48805 °/min
Orbital period
103.21 mins
BSTAR
0.000068368
Loading maneuver chart data...
Computing Atmospheric mass density...
Loading historical data...
Loading historical data...
Loading historical data...
Loading historical data...
Loading historical data...
Loading historical data...
Loading historical data...

Documentation

Showing up to 5 results
|